This is the latest recevied weather packets stored in our database for station/object KB1JL-13. If no packets are shown the sender has not sent any weather packets the latest 10 day(s).
| Time | Temp. | Humidity | Pressure | Rain* | Wind** | Luminosity | Snow |
|---|---|---|---|---|---|---|---|
| 1777815656 | 8.89° C | 62% | 1021.2 hPa | 0 mm | - | 636 W/m² | - |
| 1777815353 | 8.33° C | 65% | 1021.2 hPa | 0 mm | - | 283 W/m² | - |
| 1777815050 | 8.89° C | 62% | 1020.9 hPa | 0 mm | - | 287 W/m² | - |
| 1777814746 | 8.33° C | 64% | 1021.2 hPa | 0 mm | - | 237 W/m² | - |
| 1777814443 | 8.33° C | 64% | 1021.2 hPa | 0 mm | - | 212 W/m² | - |
| 1777814140 | 8.33° C | 64% | 1021.2 hPa | 0 mm | - | 281 W/m² | - |
| 1777813837 | 8.33° C | 63% | 1021.2 hPa | 0 mm | - | 239 W/m² | - |
| 1777813534 | 8.89° C | 64% | 1020.9 hPa | 0 mm | - | 255 W/m² | - |
| 1777813232 | 8.33° C | 63% | 1021.2 hPa | 0 mm | - | 185 W/m² | - |
| 1777812929 | 8.89° C | 61% | 1021.2 hPa | 0 mm | - | 187 W/m² | - |
| 1777812627 | 8.89° C | 62% | 1020.9 hPa | 0 mm | - | 384 W/m² | - |
| 1777812323 | 8.89° C | 62% | 1020.9 hPa | 0 mm | - | 235 W/m² | - |
| 1777812021 | 8.89° C | 62% | 1021.2 hPa | 0 mm | - | 181 W/m² | - |
| 1777811720 | 8.89° C | 61% | 1020.9 hPa | 0 mm | - | 203 W/m² | - |
| 1777811416 | 8.89° C | 63% | 1021.2 hPa | 0 mm | - | 215 W/m² | - |
| 1777811112 | 8.33° C | 63% | 1021.2 hPa | 0 mm | - | 222 W/m² | - |
| 1777810810 | 8.33° C | 63% | 1021.2 hPa | 0 mm | - | 261 W/m² | - |
| 1777810506 | 8.33° C | 63% | 1020.9 hPa | 0 mm | - | 245 W/m² | - |
| 1777810203 | 7.78° C | 64% | 1020.9 hPa | 0 mm | - | 238 W/m² | - |
| 1777809899 | 7.78° C | 65% | 1020.9 hPa | 0 mm | - | 227 W/m² | - |
| 1777809597 | 7.78° C | 65% | 1020.9 hPa | 0 mm | - | 211 W/m² | - |
| 1777809295 | 7.22° C | 67% | 1020.9 hPa | 0 mm | - | 196 W/m² | - |
| 1777808992 | 7.22° C | 67% | 1021.2 hPa | 0 mm | - | 188 W/m² | - |
| 1777808689 | 7.22° C | 67% | 1020.9 hPa | 0 mm | - | 167 W/m² | - |
| 1777808386 | 6.67° C | 69% | 1021.2 hPa | 0 mm | - | 160 W/m² | - |
* Rain latest hour (hover to see other rain measurements)
** Current wind speed in m/s (hover to see current wind gust speed)